This is the latest recevied weather packets stored in our database for station/object KI4MRC. If no packets are shown the sender has not sent any weather packets the latest 10 day(s).
| Time | Temp. | Humidity | Pressure | Rain* | Wind** | Luminosity | Snow |
|---|---|---|---|---|---|---|---|
| 1777328377 | 27.22° C | 72% | 1015.2 hPa | 0 mm | - | 46 W/m² | - |
| 1777328076 | 27.22° C | 72% | 1015.1 hPa | 0 mm | - | 49 W/m² | - |
| 1777327773 | 27.22° C | 71% | 1015 hPa | 0 mm | - | 52 W/m² | - |
| 1777327471 | 27.22° C | 71% | 1015.1 hPa | 0 mm | - | 48 W/m² | - |
| 1777327168 | 27.22° C | 71% | 1015 hPa | 0 mm | - | 51 W/m² | - |
| 1777326865 | 27.22° C | 72% | 1015.1 hPa | 0 mm | - | 52 W/m² | - |
| 1777326561 | 27.22° C | 71% | 1014.9 hPa | 0 mm | - | 51 W/m² | - |
| 1777326259 | 27.22° C | 72% | 1014.9 hPa | 0 mm | - | 71 W/m² | - |
| 1777325956 | 26.67° C | 73% | 1015 hPa | 0 mm | - | 61 W/m² | - |
| 1777325655 | 26.67° C | 73% | 1015.1 hPa | 0 mm | - | 59 W/m² | - |
| 1777325353 | 27.22° C | 73% | 1015 hPa | 0 mm | - | 96 W/m² | - |
| 1777325050 | 27.22° C | 72% | 1015.1 hPa | 0 mm | - | 93 W/m² | - |
| 1777324746 | 27.22° C | 73% | 1015.2 hPa | 0 mm | - | 99 W/m² | - |
| 1777324444 | 27.22° C | 72% | 1015 hPa | 0 mm | - | 84 W/m² | - |
| 1777324141 | 27.78° C | 70% | 1015.1 hPa | 0 mm | - | 97 W/m² | - |
| 1777323840 | 28.33° C | 69% | 1014.9 hPa | 0 mm | - | 128 W/m² | - |
| 1777323536 | 28.33° C | 70% | 1014.9 hPa | 0 mm | - | 188 W/m² | - |
| 1777323233 | 27.78° C | 71% | 1015 hPa | 0 mm | - | 110 W/m² | - |
| 1777322930 | 27.78° C | 71% | 1015 hPa | 0 mm | - | 98 W/m² | - |
| 1777322629 | 28.33° C | 71% | 1014.9 hPa | 0 mm | - | 156 W/m² | - |
| 1777322326 | 27.78° C | 72% | 1014.7 hPa | 0 mm | - | 127 W/m² | - |
| 1777322023 | 27.22° C | 73% | 1014.7 hPa | 0 mm | - | 88 W/m² | - |
| 1777321719 | 27.22° C | 73% | 1014.8 hPa | 0 mm | - | 121 W/m² | - |
| 1777321416 | 27.22° C | 72% | 1014.7 hPa | 0 mm | - | 102 W/m² | - |
| 1777321113 | 27.78° C | 72% | 1014.7 hPa | 0 mm | - | 109 W/m² | - |
* Rain latest hour (hover to see other rain measurements)
** Current wind speed in m/s (hover to see current wind gust speed)